Location: Baumgarten
(49.0970°N, 12.7493°E)
Time: 07:05:01
(UTC+00:00)

Cosmos 1455 - Pass Details

Date: 05 July 2020
Orbit: 500 x 521 km, 82.5° (Epoch: 04 August)

Event Time Altitude Azimuth Distance (km) Brightness Sun altitude
Rises 20:05:48 0° 347° (NNW) 2,644 7.0 -6.9°
Reaches altitude 10° 20:07:57 10° 345° (NNW) 1,755 6.0 -7.2°
Maximum altitude 20:11:45 64° 264° (W) 578 2.6 -7.6°
Drops below altitude 10° 20:15:33 10° 182° (S) 1,749 4.5 -8.0°
Enters shadow 20:16:48 - 180° (S) 2,260 5.0 -8.1°
